Back to catalog

IRIDIUM 33 DEB

AlivePO
NORAD 35620·DEBRIS·🇺🇸 United States

Launched Sep 14, 1997 from Baikonur Cosmodrome

Loading…

Next Passes (next 24 hours)

TLE

FreshSource: Space-Track

Epoch: Sep 13, 2026, 23:55 UTC

1 35620U 97051QS  26256.99681168  .00008424  00000-0  22588-2 0  9992
2 35620  86.3820 100.8289 0129743  72.3357 289.1961 14.43149236639300

Track IRIDIUM 33 DEB in real time with AllMySat

Download on the App Store